Weather History for Melfa, VA

Change the Weather History Date:

Tuesday, December 4, 2012

  Actual Average (KWAL) Record (KWAL)
Temperature  
Mean Temperature 65 °F 44 °F  
Max Temperature 75 °F 52 °F 71 °F (1982)
Min Temperature 55 °F 35 °F 17 °F (1966)
Degree Days  
Heating Degree Days 0    
Month to date heating degree days  
Since 1 July heating degree days  
Cooling Degree Days 0    
Month to date cooling degree days  
Year to date cooling degree days  
Growing Degree Days 15 (Base 50)    
Moisture  
Dew Point 52 °F    
Average Humidity 72    
Maximum Humidity 88    
Minimum Humidity 44    
Precipitation  
Precipitation 0.00 in 0.11 in 0.47 in (1997)
Month to date precipitation 0.45  
Year to date precipitation 37.86  
Sea Level Pressure  
Sea Level Pressure 30.22 in    
Wind  
Wind Speed 7 mph (South)    
Max Wind Speed 14 mph    
Max Gust Speed 20 mph    
Visibility 10 miles    
Events      
T = Trace of Precipitation, MM = Missing Value Source: NWS Daily Summary

Daily Weather History Graph

Daily Weather History Graph

Search for Another Location

Airport:

Trip Planner

Search our weather history database for the weather conditions in past years. The results will help you decide how hot, cold, wet, or windy it might be!

Date:

Astronomy

Dec. 04, 2012 Rise Set
Actual Time 7:02 AM EST 4:44 PM EST
Civil Twilight 6:33 AM EST 5:13 PM EST
Nautical Twilight 6:00 AM EST 5:45 PM EST
Astronomical Twilight 5:29 AM EST 6:17 PM EST
Moon 10:25 PM EST (12/4) 10:59 AM EST (12/4)
Length of Visible Light 10h 39m
Length of Day
9h 41m
Waning Gibbous, 69% of the Moon is Illuminated
Dec 4
Waning Gibbous
Dec 6
Last Quarter
Dec 13
New
Dec 20
First Quarter
Dec 28
Full

Hourly Weather History & Observations

Time (EST) Temp. Dew Point Humidity Pressure Visibility Wind Dir Wind Speed Gust Speed Precip Events Conditions
12:15 AM 57.2 °F 51.8 °F 82% 30.28 in 10.0 mi South 5.8 mph - N/A   Overcast
12:35 AM 57.2 °F 51.8 °F 82% 30.27 in 10.0 mi South 5.8 mph - N/A   Overcast
1:15 AM 57.2 °F 51.8 °F 82% 30.26 in 10.0 mi South 8.1 mph - N/A   Overcast
1:35 AM 57.2 °F 51.8 °F 82% 30.26 in 10.0 mi South 6.9 mph - N/A   Scattered Clouds
1:56 AM 57.2 °F 51.8 °F 82% 30.27 in 10.0 mi South 5.8 mph - N/A   Scattered Clouds
2:15 AM 57.2 °F 51.8 °F 82% 30.27 in 10.0 mi South 5.8 mph - N/A   Mostly Cloudy
2:35 AM 57.2 °F 51.8 °F 82% 30.27 in 10.0 mi South 6.9 mph - N/A   Scattered Clouds
2:55 AM 55.4 °F 51.8 °F 88% 30.27 in 10.0 mi South 6.9 mph - N/A   Clear
3:15 AM 55.4 °F 51.8 °F 88% 30.26 in 10.0 mi South 5.8 mph - N/A   Mostly Cloudy
3:56 AM 55.4 °F 51.8 °F 88% 30.26 in 10.0 mi South 5.8 mph - N/A   Mostly Cloudy
4:15 AM 55.4 °F 51.8 °F 88% 30.26 in 10.0 mi South 5.8 mph - N/A   Overcast
4:35 AM 57.2 °F 51.8 °F 82% 30.26 in 10.0 mi South 6.9 mph - N/A   Overcast
4:55 AM 57.2 °F 51.8 °F 82% 30.26 in 10.0 mi South 6.9 mph - N/A   Overcast
5:17 AM 57.2 °F 51.8 °F 82% 30.26 in 10.0 mi South 6.9 mph - N/A   Overcast
5:35 AM 57.2 °F 51.8 °F 82% 30.26 in 10.0 mi South 5.8 mph - N/A   Scattered Clouds
5:56 AM 57.2 °F 51.8 °F 82% 30.26 in 10.0 mi South 8.1 mph - N/A   Scattered Clouds
6:15 AM 55.4 °F 51.8 °F 88% 30.27 in 10.0 mi South 5.8 mph - N/A   Scattered Clouds
6:35 AM 55.4 °F 51.8 °F 88% 30.27 in 7.0 mi South 4.6 mph - N/A   Clear
6:55 AM 55.4 °F 51.8 °F 88% 30.28 in 7.0 mi South 4.6 mph - N/A   Mostly Cloudy
7:16 AM 55.4 °F 51.8 °F 88% 30.27 in 7.0 mi South 5.8 mph - N/A   Scattered Clouds
7:35 AM 55.4 °F 51.8 °F 88% 30.27 in 7.0 mi SSE 3.5 mph - N/A   Scattered Clouds
7:55 AM 55.4 °F 51.8 °F 88% 30.28 in 7.0 mi South 4.6 mph - N/A   Mostly Cloudy
8:15 AM 55.4 °F 51.8 °F 88% 30.28 in 7.0 mi South 4.6 mph - N/A   Scattered Clouds
8:35 AM 57.2 °F 53.6 °F 88% 30.29 in 10.0 mi South 3.5 mph - N/A   Scattered Clouds
8:55 AM 60.8 °F 53.6 °F 77% 30.29 in 10.0 mi SSW 5.8 mph - N/A   Scattered Clouds
9:15 AM 62.6 °F 53.6 °F 72% 30.29 in 10.0 mi SSW 4.6 mph - N/A   Scattered Clouds
9:36 AM 64.4 °F 53.6 °F 68% 30.29 in 10.0 mi SW 8.1 mph - N/A   Mostly Cloudy
9:55 AM 66.2 °F 55.4 °F 68% 30.29 in 10.0 mi SSW 8.1 mph - N/A   Scattered Clouds
10:15 AM 66.2 °F 55.4 °F 68% 30.29 in 10.0 mi SW 9.2 mph - N/A   Clear
10:36 AM 69.8 °F 55.4 °F 60% 30.28 in 10.0 mi SW 9.2 mph - N/A   Clear
10:56 AM 69.8 °F 53.6 °F 56% 30.27 in 10.0 mi SW 5.8 mph - N/A   Clear
11:16 AM 71.6 °F 53.6 °F 53% 30.26 in 10.0 mi SW 5.8 mph - N/A   Clear
11:36 AM 71.6 °F 53.6 °F 53% 30.25 in 10.0 mi SW 9.2 mph - N/A   Clear
11:55 AM 73.4 °F 53.6 °F 50% 30.24 in 10.0 mi SW 5.8 mph - N/A   Clear
12:16 PM 73.4 °F 51.8 °F 47% 30.23 in 10.0 mi SW 11.5 mph - N/A   Clear
12:37 PM 73.4 °F 51.8 °F 47% 30.22 in 10.0 mi SW 10.4 mph - N/A   Clear
1:16 PM 75.2 °F 51.8 °F 44% 30.20 in 10.0 mi SW 12.7 mph 17.3 mph N/A   Clear
1:35 PM 73.4 °F 51.8 °F 47% 30.19 in 10.0 mi SSW 12.7 mph 17.3 mph N/A   Clear
1:55 PM 75.2 °F 51.8 °F 44% 30.18 in 10.0 mi SSW 13.8 mph 17.3 mph N/A   Clear
2:15 PM 73.4 °F 51.8 °F 47% 30.18 in 10.0 mi South 8.1 mph 19.6 mph N/A   Clear
2:36 PM 73.4 °F 53.6 °F 50% 30.18 in 10.0 mi South 5.8 mph - N/A   Clear
2:55 PM 71.6 °F 53.6 °F 53% 30.18 in 10.0 mi South 6.9 mph - N/A   Clear
3:15 PM 71.6 °F 53.6 °F 53% 30.17 in 10.0 mi South 9.2 mph - N/A   Clear
3:35 PM 69.8 °F 53.6 °F 56% 30.17 in 10.0 mi South 6.9 mph - N/A   Clear
3:56 PM 68.0 °F 53.6 °F 60% 30.17 in 10.0 mi South 6.9 mph - N/A   Clear
4:15 PM 66.2 °F 53.6 °F 64% 30.17 in 10.0 mi South 4.6 mph - N/A   Clear
4:36 PM 64.4 °F 53.6 °F 68% 30.17 in 10.0 mi South 5.8 mph - N/A   Clear
4:55 PM 62.6 °F 53.6 °F 72% 30.17 in 10.0 mi South 5.8 mph - N/A   Clear
5:16 PM 62.6 °F 51.8 °F 68% 30.17 in 10.0 mi South 6.9 mph - N/A   Clear
5:35 PM 60.8 °F 51.8 °F 72% 30.17 in 10.0 mi South 6.9 mph - N/A   Clear
5:55 PM 60.8 °F 51.8 °F 72% 30.17 in 10.0 mi South 8.1 mph - N/A   Clear
6:15 PM 60.8 °F 51.8 °F 72% 30.17 in 10.0 mi South 6.9 mph - N/A   Clear
6:35 PM 60.8 °F 51.8 °F 72% 30.17 in 10.0 mi South 9.2 mph - N/A   Clear
6:55 PM 59.0 °F 51.8 °F 77% 30.16 in 10.0 mi South 9.2 mph - N/A   Clear
7:15 PM 59.0 °F 51.8 °F 77% 30.16 in 10.0 mi South 6.9 mph - N/A   Clear
7:35 PM 59.0 °F 51.8 °F 77% 30.16 in 10.0 mi South 8.1 mph - N/A   Clear
7:55 PM 59.0 °F 51.8 °F 77% 30.16 in 10.0 mi South 6.9 mph - N/A   Clear
8:15 PM 59.0 °F 51.8 °F 77% 30.15 in 10.0 mi South 8.1 mph - N/A   Clear
8:35 PM 60.8 °F 51.8 °F 72% 30.15 in 10.0 mi SSW 8.1 mph - N/A   Clear
8:55 PM 60.8 °F 51.8 °F 72% 30.15 in 10.0 mi SSW 8.1 mph - N/A   Clear
9:15 PM 60.8 °F 51.8 °F 72% 30.14 in 10.0 mi SSW 10.4 mph - N/A   Clear
9:35 PM 62.6 °F 51.8 °F 68% 30.14 in 10.0 mi SSW 9.2 mph - N/A   Clear
9:55 PM 60.8 °F 51.8 °F 72% 30.14 in 10.0 mi South 5.8 mph - N/A   Clear
10:15 PM 62.6 °F 51.8 °F 68% 30.14 in 10.0 mi SSW 6.9 mph - N/A   Clear
10:35 PM 60.8 °F 51.8 °F 72% 30.14 in 10.0 mi SSW 8.1 mph - N/A   Clear
10:55 PM 62.6 °F 51.8 °F 68% 30.13 in 10.0 mi SSW 9.2 mph - N/A   Clear
11:15 PM 62.6 °F 53.6 °F 72% 30.13 in 10.0 mi SSW 11.5 mph 17.3 mph N/A   Clear
11:35 PM 62.6 °F 53.6 °F 72% 30.12 in 10.0 mi SW 10.4 mph 18.4 mph N/A   Clear